sat.trackr.live / text

‹ back to catalog

STARLINK-34888

NORAD 65471 · 2025-195P

PAYLOAD ACTIVE UNKNOWN

§ Identity

Operator
Country
US
Launch date
2025-09-03
Launch site
AFETR
Launch vehicle
Mass (kg)
RCS (m²)

Purposes: comms

External: N2YO · Heavens-Above · Gunter

§ Orbital elements

Epoch: 2026-05-25T01:07:33.843936Z

Period
94.11 min
Inclination
53.1604°
Eccentricity
0.0000949
Mean motion
15.30201990 rev/d
Perigee alt
474.6 km
Apogee alt
475.9 km
Semi-major
6,853.3 km
B*
3.1970e-4
RAAN
263.5513°
Arg perigee
108.9694°
Mean anomaly
251.1409°
Rev number
4,168

§ Raw data

STARLINK-348881 65471U 25195P   26145.04691949  .00009122  00000+0  31970-3 0  99912 65471  53.1604 263.5513 0000949 108.9694 251.1409 15.30201990 41689

JSON: /api/v1/satellites/65471 · /tle

For live sub-satellite position, see the globe view (requires WebGL).

§ Visibility from observer

Set your observer location to see the next 7 days of passes ≥ 10°. The values pass through the URL so the page stays shareable.

No JS? Fill the form by hand. The geolocation button needs JavaScript.